DW3201 Weather Reports


Display with metric or nautical units.
time (UTC)temp
F
wind
direction
speed
MPH
gust
MPH
rain 1hr
in
rain 24hr
in
rain mn
in
humidity
%
barometer
mb
20260904224600 84 0 0.0 0.0 0.00 0.24 0.24 82 1011.7
20260904223103 84 0 0.0 0.0 0.00 0.24 0.24 80 1011.7
20260904221605 85 0 0.0 1.0 0.00 0.24 0.24 77 1011.7
20260904220109 85 248 1.0 3.0 0.00 0.24 0.24 75 1011.7
20260904214603 86 250 2.0 8.0 0.00 0.24 0.24 74 1011.7
20260904213102 85 283 1.0 5.0 0.00 0.24 0.24 75 1011.7
20260904211606 86 238 3.0 9.0 0.00 0.24 0.24 72 1011.7
20260904210104 85 273 1.0 5.0 0.00 0.24 0.24 75 1011.5
20260904204601 85 252 0.0 2.0 0.00 0.24 0.24 75 1011.5
20260904203102 85 236 1.0 4.0 0.00 0.24 0.24 76 1011.6
20260904201620 84 243 1.0 3.0 0.00 0.24 0.24 74 1011.8
20260904194559 84 268 0.0 2.0 0.00 0.24 0.24 75 1012.3
20260904193107 83 0 0.0 2.0 0.00 0.24 0.24 75 1012.5
20260904191602 83 321 0.0 2.0 0.00 0.24 0.24 77 1012.8
20260904184605 82 264 2.0 5.0 0.00 0.25 0.24 76 1012.7
20260904183115 81 276 1.0 3.0 0.00 0.25 0.24 78 1012.7
20260904181610 79 284 1.0 5.0 0.00 0.25 0.24 82 1013.3
20260904180112 77 277 0.0 3.0 0.00 0.25 0.24 86 1013.4
20260904174611 74 273 1.0 3.0 0.00 0.25 0.24 91 1013.7
20260904173124 72 267 0.0 3.0 0.00 0.25 0.24 93 1013.6
20260904171608 71 53 0.0 3.0 0.00 0.25 0.24 93 1013.5
20260904170108 71 129 1.0 6.0 0.00 0.25 0.24 93 1013.2
20260904164615 71 64 1.0 5.0 0.12 0.47 0.24 94 1013.7
20260904163101 70 297 1.0 8.0 0.19 0.47 0.24 93 1014.4
20260904161618 70 56 2.0 5.0 0.19 0.47 0.24 93 1015.0
20260904160059 70 47 2.0 9.0 0.19 0.47 0.24 92 1015.0
20260904154558 71 113 3.0 8.0 0.07 0.91 0.12 89 1016.1
20260904153108 72 101 4.0 6.0 0.00 0.84 0.05 88 1016.8
20260904151601 71 114 5.0 9.0 0.00 0.84 0.05 88 1016.2
20260904150105 71 65 1.0 10.0 0.00 0.84 0.05 88 1016.1
20260904144621 71 107 4.0 6.0 0.00 0.86 0.05 89 1015.7
20260904143104 71 117 6.0 13.0 0.00 0.86 0.05 89 1016.0
20260904141604 70 39 5.0 16.0 0.00 0.86 0.05 90 1016.0
20260904140106 70 34 8.0 14.0 0.00 0.86 0.05 91 1016.1
20260904134608 70 65 5.0 11.0 0.00 0.86 0.05 91 1016.5
20260904133103 70 119 2.0 7.0 0.00 0.86 0.05 91 1016.6
20260904131558 69 82 1.0 12.0 0.00 0.86 0.05 91 1014.9
20260904130058 69 55 5.0 13.0 0.00 0.86 0.05 92 1015.1
20260904124602 69 62 9.0 14.0 0.00 0.86 0.05 93 1015.1
20260904123106 70 86 8.0 16.0 0.00 0.86 0.05 94 1014.5
20260904121558 69 79 5.0 10.0 0.01 0.86 0.05 94 1014.2
20260904120122 69 90 6.0 10.0 0.01 0.86 0.05 94 1014.0
20260904114559 70 358 6.0 9.0 0.01 0.86 0.05 94 1013.4
20260904113102 70 58 5.0 12.0 0.02 0.86 0.05 93 1013.3
20260904111612 71 98 3.0 10.0 0.02 0.85 0.04 93 1012.9
20260904110116 72 60 3.0 10.0 0.04 0.85 0.04 94 1012.9
20260904104600 72 103 6.0 12.0 0.04 0.85 0.04 94 1012.7
20260904103107 73 82 4.0 9.0 0.03 0.84 0.03 95 1012.6
20260904101602 72 71 6.0 8.0 0.02 0.83 0.02 95 1012.7
20260904094615 72 47 1.0 2.0 0.00 0.81 0.00 95 1012.5
20260904093104 72 0 0.0 2.0 0.00 0.81 0.00 95 1012.2
20260904091559 71 0 0.0 2.0 0.00 0.81 0.00 95 1012.3
20260904090101 71 0 0.0 0.0 0.00 0.81 0.00 95 1012.0
20260904084604 71 0 0.0 0.0 0.00 0.81 0.00 94 1012.3
20260904083102 72 0 0.0 1.0 0.00 0.81 0.00 94 1012.5
20260904081642 72 114 1.0 2.0 0.00 0.81 0.00 94 1011.8
20260904080059 72 0 0.0 3.0 0.00 0.81 0.00 94 1012.2
20260904074617 72 0 0.0 2.0 0.00 0.81 0.00 94 1012.6
20260904073107 72 92 0.0 6.0 0.00 0.81 0.00 94 1012.9
20260904071608 72 71 2.0 5.0 0.00 0.81 0.00 94 1013.0
20260904070131 71 70 1.0 4.0 0.00 0.81 0.00 94 1012.7
20260904064606 71 102 1.0 5.0 0.00 0.81 0.00 95 1012.8
20260904063101 71 49 2.0 5.0 0.00 0.81 0.00 94 1012.8
20260904061608 72 55 1.0 4.0 0.00 0.81 0.00 94 1012.9
20260904060106 72 89 2.0 4.0 0.00 0.81 0.00 94 1012.9
20260904054607 72 71 2.0 4.0 0.00 0.81 0.00 94 1013.0
20260904053107 72 82 1.0 5.0 0.00 0.81 0.00 94 1013.3
20260904051608 72 0 0.0 1.0 0.00 0.81 0.00 94 1013.3
20260904050109 72 0 0.0 3.0 0.00 0.81 0.00 93 1013.3
20260904044605 72 44 2.0 5.0 0.00 0.81 0.81 93 1013.7
20260904043122 72 103 1.0 5.0 0.00 0.81 0.81 93 1013.6
20260904041606 72 82 3.0 5.0 0.00 0.81 0.81 92 1013.6
20260904040107 72 83 0.0 3.0 0.00 0.81 0.81 92 1013.5
20260904034605 72 85 2.0 4.0 0.00 0.81 0.81 92 1013.5
20260904033101 72 83 3.0 6.0 0.00 0.81 0.81 92 1013.6
20260904031602 72 72 2.0 3.0 0.00 0.81 0.81 92 1014.0
20260904030059 72 73 0.0 2.0 0.00 0.81 0.81 91 1014.0
20260904024604 72 70 1.0 3.0 0.00 0.81 0.81 91 1013.9
20260904023102 73 47 2.0 6.0 0.00 0.81 0.81 91 1013.8
20260904021602 73 78 1.0 5.0 0.00 0.81 0.81 90 1013.7
20260904020106 73 70 3.0 5.0 0.00 0.81 0.81 90 1013.7
20260904014645 73 0 0.0 0.0 0.00 0.81 0.81 90 1013.6
20260904013103 73 0 0.0 1.0 0.00 0.81 0.81 89 1013.5
20260904011602 74 70 1.0 3.0 0.00 0.81 0.81 88 1013.2
20260904010100 74 64 0.0 3.0 0.00 0.81 0.81 87 1013.0
20260904004605 75 113 2.0 3.0 0.00 0.81 0.81 87 1012.9
20260904003110 75 72 1.0 3.0 0.00 0.81 0.81 86 1012.8
20260904001602 75 50 0.0 4.0 0.00 0.81 0.81 85 1012.8
20260904000140 76 45 2.0 6.0 0.00 0.81 0.81 84 1012.8
20260903234604 77 77 4.0 7.0 0.00 0.81 0.81 85 1012.7
20260903233101 77 88 4.0 7.0 0.00 0.81 0.81 85 1012.5
20260903231618 79 340 9.0 12.0 0.00 0.81 0.81 84 1012.3
20260903230108 81 85 1.0 4.0 0.00 0.81 0.81 81 1012.1